Altoona, PA

8:52 AM EDT on May 27, 2018 (GMT -0400)
Altoona-Blair County

Weather History for KAOO - December, 2014

Change the Weather History Date:

Sunday, December 28, 2014

  Actual Average Record
Temperature  
Mean Temperature 44 °F 28 °F  
Max Temperature 53 °F 35 °F 65 °F (1971)
Min Temperature 34 °F 21 °F -3 °F (1950)
Degree Days  
Heating Degree Days 21 37  
Month to date heating degree days 842 952  
Since 1 July heating degree days 2144 2271  
Cooling Degree Days 0 0  
Month to date cooling degree days 0 0  
Year to date cooling degree days 521 531  
Moisture  
Dew Point 35 °F    
Average Humidity 64    
Maximum Humidity 86    
Minimum Humidity 42    
Precipitation  
Precipitation T in 0.06 in 0.99 in (1967)
Month to date precipitation 1.86 2.23  
Year to date precipitation 35.85 35.45  
Sea Level Pressure  
Sea Level Pressure 30.01 in    
Wind  
Wind Speed 8 mph (WNW)    
Max Wind Speed 18 mph    
Max Gust Speed 24 mph    
Visibility 10 miles    
Events Rain    
T = Trace of Precipitation, MM = Missing Value Source: NWS Daily Summary

Daily Weather History Graph

Daily Weather History Graph

Search for Another Location

Airport or City:

Astronomy

Dec. 28, 2014 Rise Set
Actual Time 7:35 AM EST 4:54 PM EST
Civil Twilight 7:04 AM EST 5:25 PM EST
Nautical Twilight 6:30 AM EST 5:59 PM EST
Astronomical Twilight 5:57 AM EST 6:32 PM EST
Moon 11:55 AM EST (12/28) No Moon Set
Length of Visible Light 10h 20m
Length of Day
9h 19m
Waxing Crescent, 49% of the Moon is Illuminated
Dec 28
Waxing Crescent
Dec 28
First Quarter
Jan 4
Full
Jan 13
Last Quarter
Jan 20
New

Hourly Weather History & Observations

Time (EST) Temp. Windchill Dew Point Humidity Pressure Visibility Wind Dir Wind Speed Gust Speed Precip Events Conditions
12:53 AM 48.0 °F - 28.0 °F 46% 29.95 in 10.0 mi Calm Calm - N/A   Overcast
1:53 AM 48.9 °F - 28.9 °F 46% 29.96 in 10.0 mi WNW 4.6 mph - N/A   Overcast
2:53 AM 50.0 °F - 28.0 °F 43% 29.94 in 10.0 mi West 8.1 mph - N/A   Overcast
3:53 AM 50.0 °F - 33.1 °F 52% 29.94 in 10.0 mi NW 11.5 mph - N/A   Overcast
4:53 AM 48.0 °F - 39.9 °F 74% 29.95 in 10.0 mi WSW 8.1 mph - N/A   Overcast
5:18 AM 48.0 °F - 39.9 °F 74% 29.95 in 10.0 mi West 11.5 mph 18.4 mph N/A   Overcast
5:53 AM 46.9 °F - 39.9 °F 77% 29.92 in 10.0 mi WSW 8.1 mph - N/A   Overcast
6:00 AM 48.0 °F - 39.9 °F 74% 29.90 in 10.0 mi WSW 9.2 mph - N/A   Overcast
6:36 AM 46.9 °F - 39.9 °F 77% 29.91 in 10.0 mi SW 5.8 mph - N/A   Overcast
6:53 AM 46.9 °F - 39.9 °F 77% 29.95 in 10.0 mi SW 10.4 mph - N/A   Overcast
7:53 AM 46.9 °F - 41.0 °F 80% 29.96 in 10.0 mi West 11.5 mph - N/A   Overcast
8:53 AM 46.9 °F - 42.1 °F 83% 29.97 in 10.0 mi West 9.2 mph - N/A   Overcast
9:53 AM 46.0 °F 43.1 °F 44.1 °F 93% 29.97 in 9.0 mi West 5.8 mph - 0.00 in Rain Light Rain
10:13 AM 43.0 °F 35.7 °F 39.9 °F 89% 29.97 in 9.0 mi NW 15.0 mph 23.0 mph 0.00 in Rain Light Rain
10:21 AM 43.0 °F 36.4 °F 39.0 °F 86% 29.98 in 10.0 mi NW 12.7 mph - 0.00 in   Overcast
10:53 AM 43.0 °F 37.7 °F 39.0 °F 86% 30.00 in 10.0 mi NW 9.2 mph - 0.00 in   Overcast
11:36 AM 43.0 °F 38.2 °F 39.0 °F 86% 29.97 in 10.0 mi NW 8.1 mph - N/A   Overcast
11:53 AM 43.0 °F 37.2 °F 37.9 °F 82% 30.00 in 10.0 mi NW 10.4 mph - N/A   Overcast
12:17 PM 43.0 °F 36.8 °F 37.9 °F 82% 29.98 in 10.0 mi NW 11.5 mph - N/A   Overcast
12:53 PM 43.0 °F 38.8 °F 37.9 °F 82% 29.97 in 10.0 mi NW 6.9 mph - N/A   Overcast
1:48 PM 42.8 °F 37.5 °F 35.6 °F 76% 29.95 in 10.0 mi WNW 9.2 mph - N/A   Overcast
1:53 PM 42.1 °F 37.1 °F 37.0 °F 82% 29.98 in 10.0 mi WNW 8.1 mph - N/A   Overcast
2:53 PM 39.9 °F 35.1 °F 35.1 °F 83% 30.00 in 10.0 mi WNW 6.9 mph - N/A   Overcast
3:09 PM 39.9 °F 32.9 °F 35.1 °F 83% 29.99 in 10.0 mi NW 11.5 mph - N/A   Overcast
3:53 PM 39.0 °F 31.0 °F 34.0 °F 82% 30.03 in 10.0 mi NW 13.8 mph - N/A   Overcast
4:25 PM 37.9 °F 32.1 °F 34.0 °F 86% 30.02 in 10.0 mi NW 8.1 mph - N/A   Overcast
4:53 PM 37.0 °F 31.6 °F 32.0 °F 82% 30.06 in 10.0 mi NNW 6.9 mph - N/A   Overcast
5:38 PM 37.0 °F 33.3 °F 32.0 °F 82% 30.03 in 10.0 mi NW 4.6 mph - N/A   Overcast
5:53 PM 37.0 °F 31.0 °F 32.0 °F 82% 30.06 in 10.0 mi NW 8.1 mph - N/A   Overcast
6:07 PM 37.0 °F 31.6 °F 32.0 °F 82% 30.04 in 10.0 mi NNW 6.9 mph - N/A   Overcast
6:34 PM 37.0 °F 31.6 °F 32.0 °F 82% 30.05 in 10.0 mi West 6.9 mph - N/A   Overcast
6:53 PM 37.0 °F 31.0 °F 32.0 °F 82% 30.08 in 10.0 mi West 8.1 mph - N/A   Overcast
7:00 PM 37.0 °F 31.6 °F 32.0 °F 82% 30.06 in 10.0 mi West 6.9 mph - N/A   Overcast
7:53 PM 35.1 °F 29.3 °F 30.0 °F 82% 30.10 in 10.0 mi NW 6.9 mph - N/A   Clear
8:53 PM 34.0 °F - 28.9 °F 82% 30.12 in 10.0 mi Calm Calm - N/A   Partly Cloudy
9:42 PM 36.0 °F 32.1 °F 30.9 °F 82% 30.10 in 10.0 mi WNW 4.6 mph - N/A   Overcast
9:53 PM 36.0 °F 31.1 °F 30.9 °F 82% 30.13 in 10.0 mi WNW 5.8 mph - N/A   Overcast
10:53 PM 35.1 °F 28.6 °F 30.0 °F 82% 30.14 in 10.0 mi NW 8.1 mph - N/A   Overcast
11:00 PM 35.1 °F 29.3 °F 30.0 °F 82% 30.11 in 10.0 mi NW 6.9 mph - N/A   Overcast
11:53 PM 35.1 °F 30.1 °F 28.0 °F 76% 30.15 in 10.0 mi NW 5.8 mph - N/A   Overcast